^^
Daily Summary for April 26, 2021 Units:  Both    English   Metric
Daily Weekly Monthly Yearly Custom
  High: Low: Average:
Temperature: 64.0 °F /  17.8 °C 36.0 °F /  2.2 °C 48.7 °F /  9.3 °C
Dew Point: 43.0 °F /  6.1 °C 33.0 °F /  0.6 °C 36.6 °F /  2.6 °C
Humidity: 93% 33% 67%
Wind Speed: 17mph /  27.4km/h - 2.9mph /  4.7km/h
Wind Gust: 17mph /  27.4km/h - -
Wind- - ESE
Pressure: 30.0 in /  1015.8 hPa 30.0 in /  1015.8 hPa -
Precipitation: 0.000 in /  0 mm    
Historical Graphs
 
 
Tabular Data for April 26, 2021
Time Temperature Dew Point Pressure Wind Wind Speed Wind Gust Humidity Rainfall Rate (Hourly) solar
00:04 42.0 °F /  5.6 °C 39.0 °F /  3.9 °C 30.0in /  1015.8hPa ENE 2mph /  3.2km/h 2mph /  3.2km/h 88% 0.000in /  0mm 0.00 W/m2
00:09 42.0 °F /  5.6 °C 39.0 °F /  3.9 °C 30.0in /  1015.8hPa ENE 4mph /  6.4km/h 2mph /  3.2km/h 88% 0.000in /  0mm 0.00 W/m2
00:14 42.0 °F /  5.6 °C 38.0 °F /  3.3 °C 30.0in /  1015.8hPa ENE 4mph /  6.4km/h 3mph /  4.8km/h 88% 0.000in /  0mm 0.00 W/m2
00:19 42.0 °F /  5.6 °C 38.0 °F /  3.3 °C 30.0in /  1015.8hPa Calm     87% 0.000in /  0mm 0.00 W/m2
00:24 41.0 °F /  5 °C 38.0 °F /  3.3 °C 30.0in /  1015.8hPa Calm     87% 0.000in /  0mm 0.00 W/m2
00:29 41.0 °F /  5 °C 38.0 °F /  3.3 °C 30.0in /  1015.8hPa Calm     87% 0.000in /  0mm 0.00 W/m2
00:34 41.0 °F /  5 °C 37.0 °F /  2.8 °C 30.0in /  1015.8hPa Calm     87% 0.000in /  0mm 0.00 W/m2
00:39 41.0 °F /  5 °C 37.0 °F /  2.8 °C 30.0in /  1015.8hPa Calm     87% 0.000in /  0mm 0.00 W/m2
00:44 41.0 °F /  5 °C 37.0 °F /  2.8 °C 30.0in /  1015.8hPa Calm     87% 0.000in /  0mm 0.00 W/m2
00:49 40.0 °F /  4.4 °C 37.0 °F /  2.8 °C 30.0in /  1015.8hPa Calm     87% 0.000in /  0mm 0.00 W/m2
00:54 40.0 °F /  4.4 °C 37.0 °F /  2.8 °C 30.0in /  1015.8hPa Calm     87% 0.000in /  0mm 0.00 W/m2
00:59 40.0 °F /  4.4 °C 36.0 °F /  2.2 °C 30.0in /  1015.8hPa Calm     87% 0.000in /  0mm 0.00 W/m2
01:04 40.0 °F /  4.4 °C 36.0 °F /  2.2 °C 30.0in /  1015.8hPa Calm     87% 0.000in /  0mm 0.00 W/m2
01:09 39.0 °F /  3.9 °C 36.0 °F /  2.2 °C 30.0in /  1015.8hPa Calm     87% 0.000in /  0mm 0.00 W/m2
01:14 39.0 °F /  3.9 °C 36.0 °F /  2.2 °C 30.0in /  1015.8hPa Calm     87% 0.000in /  0mm 0.00 W/m2
01:19 39.0 °F /  3.9 °C 36.0 °F /  2.2 °C 30.0in /  1015.8hPa Calm     87% 0.000in /  0mm 0.00 W/m2
01:24 39.0 °F /  3.9 °C 36.0 °F /  2.2 °C 30.0in /  1015.8hPa Calm     88% 0.000in /  0mm 0.00 W/m2
01:29 39.0 °F /  3.9 °C 36.0 °F /  2.2 °C 30.0in /  1015.8hPa Calm     88% 0.000in /  0mm 0.00 W/m2
01:34 39.0 °F /  3.9 °C 36.0 °F /  2.2 °C 30.0in /  1015.8hPa Calm     88% 0.000in /  0mm 0.00 W/m2
01:39 39.0 °F /  3.9 °C 36.0 °F /  2.2 °C 30.0in /  1015.8hPa Calm     88% 0.000in /  0mm 0.00 W/m2
01:44 39.0 °F /  3.9 °C 36.0 °F /  2.2 °C 30.0in /  1015.8hPa Calm     89% 0.000in /  0mm 0.00 W/m2
01:49 39.0 °F /  3.9 °C 36.0 °F /  2.2 °C 30.0in /  1015.8hPa Calm     89% 0.000in /  0mm 0.00 W/m2
01:54 39.0 °F /  3.9 °C 36.0 °F /  2.2 °C 30.0in /  1015.8hPa Calm     89% 0.000in /  0mm 0.00 W/m2
01:59 39.0 °F /  3.9 °C 36.0 °F /  2.2 °C 30.0in /  1015.8hPa Calm     89% 0.000in /  0mm 0.00 W/m2
02:04 39.0 °F /  3.9 °C 36.0 °F /  2.2 °C 30.0in /  1015.8hPa Calm     89% 0.000in /  0mm 0.00 W/m2
02:09 39.0 °F /  3.9 °C 36.0 °F /  2.2 °C 30.0in /  1015.8hPa Calm     89% 0.000in /  0mm 0.00 W/m2
02:14 39.0 °F /  3.9 °C 36.0 °F /  2.2 °C 30.0in /  1015.8hPa Calm     89% 0.000in /  0mm 0.00 W/m2
02:19 39.0 °F /  3.9 °C 36.0 °F /  2.2 °C 30.0in /  1015.8hPa Calm     89% 0.000in /  0mm 0.00 W/m2
02:24 39.0 °F /  3.9 °C 36.0 °F /  2.2 °C 30.0in /  1015.8hPa Calm     89% 0.000in /  0mm 0.00 W/m2
02:29 38.0 °F /  3.3 °C 35.0 °F /  1.7 °C 30.0in /  1015.8hPa Calm     89% 0.000in /  0mm 0.00 W/m2
02:34 38.0 °F /  3.3 °C 35.0 °F /  1.7 °C 30.0in /  1015.8hPa Calm     89% 0.000in /  0mm 0.00 W/m2
02:39 38.0 °F /  3.3 °C 35.0 °F /  1.7 °C 30.0in /  1015.8hPa Calm     89% 0.000in /  0mm 0.00 W/m2
02:44 38.0 °F /  3.3 °C 35.0 °F /  1.7 °C 30.0in /  1015.8hPa Calm     89% 0.000in /  0mm 0.00 W/m2
02:49 38.0 °F /  3.3 °C 35.0 °F /  1.7 °C 30.0in /  1015.8hPa Calm     89% 0.000in /  0mm 0.00 W/m2
02:54 38.0 °F /  3.3 °C 35.0 °F /  1.7 °C 30.0in /  1015.8hPa Calm     89% 0.000in /  0mm 0.00 W/m2
02:59 38.0 °F /  3.3 °C 35.0 °F /  1.7 °C 30.0in /  1015.8hPa Calm     89% 0.000in /  0mm 0.00 W/m2
03:04 38.0 °F /  3.3 °C 35.0 °F /  1.7 °C 30.0in /  1015.8hPa Calm     89% 0.000in /  0mm 0.00 W/m2
03:09 38.0 °F /  3.3 °C 35.0 °F /  1.7 °C 30.0in /  1015.8hPa Calm     89% 0.000in /  0mm 0.00 W/m2
03:14 38.0 °F /  3.3 °C 35.0 °F /  1.7 °C 30.0in /  1015.8hPa Calm     89% 0.000in /  0mm 0.00 W/m2
03:19 38.0 °F /  3.3 °C 35.0 °F /  1.7 °C 30.0in /  1015.8hPa Calm     89% 0.000in /  0mm 0.00 W/m2
03:24 38.0 °F /  3.3 °C 35.0 °F /  1.7 °C 30.0in /  1015.8hPa Calm     89% 0.000in /  0mm 0.00 W/m2
03:29 38.0 °F /  3.3 °C 35.0 °F /  1.7 °C 30.0in /  1015.8hPa Calm     89% 0.000in /  0mm 0.00 W/m2
03:34 37.0 °F /  2.8 °C 35.0 °F /  1.7 °C 30.0in /  1015.8hPa Calm     89% 0.000in /  0mm 0.00 W/m2
03:39 37.0 °F /  2.8 °C 34.0 °F /  1.1 °C 30.0in /  1015.8hPa Calm     89% 0.000in /  0mm 0.00 W/m2
03:44 37.0 °F /  2.8 °C 35.0 °F /  1.7 °C 30.0in /  1015.8hPa Calm     90% 0.000in /  0mm 0.00 W/m2
03:49 37.0 °F /  2.8 °C 35.0 °F /  1.7 °C 30.0in /  1015.8hPa Calm     90% 0.000in /  0mm 0.00 W/m2
03:54 37.0 °F /  2.8 °C 35.0 °F /  1.7 °C 30.0in /  1015.8hPa Calm     90% 0.000in /  0mm 0.00 W/m2
03:59 37.0 °F /  2.8 °C 35.0 °F /  1.7 °C 30.0in /  1015.8hPa Calm     90% 0.000in /  0mm 0.00 W/m2
04:04 37.0 °F /  2.8 °C 34.0 °F /  1.1 °C 30.0in /  1015.8hPa Calm     90% 0.000in /  0mm 0.00 W/m2
04:09 37.0 °F /  2.8 °C 34.0 °F /  1.1 °C 30.0in /  1015.8hPa Calm     90% 0.000in /  0mm 0.00 W/m2
04:14 37.0 °F /  2.8 °C 34.0 °F /  1.1 °C 30.0in /  1015.8hPa Calm     89% 0.000in /  0mm 0.00 W/m2
04:19 37.0 °F /  2.8 °C 34.0 °F /  1.1 °C 30.0in /  1015.8hPa Calm     89% 0.000in /  0mm 0.00 W/m2
04:24 37.0 °F /  2.8 °C 34.0 °F /  1.1 °C 30.0in /  1015.8hPa Calm     89% 0.000in /  0mm 0.00 W/m2
04:29 37.0 °F /  2.8 °C 34.0 °F /  1.1 °C 30.0in /  1015.8hPa Calm     89% 0.000in /  0mm 0.00 W/m2
04:34 37.0 °F /  2.8 °C 34.0 °F /  1.1 °C 30.0in /  1015.8hPa Calm     89% 0.000in /  0mm 0.00 W/m2
04:39 37.0 °F /  2.8 °C 34.0 °F /  1.1 °C 30.0in /  1015.8hPa Calm     89% 0.000in /  0mm 0.00 W/m2
04:44 36.0 °F /  2.2 °C 34.0 °F /  1.1 °C 30.0in /  1015.8hPa Calm     90% 0.000in /  0mm 0.00 W/m2
04:49 36.0 °F /  2.2 °C 33.0 °F /  0.6 °C 30.0in /  1015.8hPa Calm     89% 0.000in /  0mm 0.00 W/m2
04:54 36.0 °F /  2.2 °C 33.0 °F /  0.6 °C 30.0in /  1015.8hPa Calm     89% 0.000in /  0mm 0.00 W/m2
04:59 36.0 °F /  2.2 °C 33.0 °F /  0.6 °C 30.0in /  1015.8hPa Calm     89% 0.000in /  0mm 0.00 W/m2
05:04 36.0 °F /  2.2 °C 34.0 °F /  1.1 °C 30.0in /  1015.8hPa Calm     90% 0.000in /  0mm 0.00 W/m2
05:09 36.0 °F /  2.2 °C 33.0 °F /  0.6 °C 30.0in /  1015.8hPa Calm     90% 0.000in /  0mm 0.00 W/m2
05:14 36.0 °F /  2.2 °C 34.0 °F /  1.1 °C 30.0in /  1015.8hPa Calm     90% 0.000in /  0mm 0.00 W/m2
05:19 36.0 °F /  2.2 °C 34.0 °F /  1.1 °C 30.0in /  1015.8hPa Calm     90% 0.000in /  0mm 0.00 W/m2
05:23 36.0 °F /  2.2 °C 34.0 °F /  1.1 °C 30.0in /  1015.8hPa Calm     90% 0.000in /  0mm 0.00 W/m2
05:29 36.0 °F /  2.2 °C 34.0 °F /  1.1 °C 30.0in /  1015.8hPa Calm     91% 0.000in /  0mm 0.00 W/m2
05:34 37.0 °F /  2.8 °C 34.0 °F /  1.1 °C 30.0in /  1015.8hPa Calm     91% 0.000in /  0mm 0.00 W/m2
05:39 37.0 °F /  2.8 °C 34.0 °F /  1.1 °C 30.0in /  1015.8hPa Calm     91% 0.000in /  0mm 0.00 W/m2
05:44 37.0 °F /  2.8 °C 35.0 °F /  1.7 °C 30.0in /  1015.8hPa Calm     91% 0.000in /  0mm 0.00 W/m2
05:49 37.0 °F /  2.8 °C 35.0 °F /  1.7 °C 30.0in /  1015.8hPa Calm     91% 0.000in /  0mm 0.00 W/m2
05:54 37.0 °F /  2.8 °C 35.0 °F /  1.7 °C 30.0in /  1015.8hPa ENE 4mph /  6.4km/h 1mph /  1.6km/h 91% 0.000in /  0mm 0.00 W/m2
05:59 38.0 °F /  3.3 °C 35.0 °F /  1.7 °C 30.0in /  1015.8hPa Calm   3mph /  4.8km/h 92% 0.000in /  0mm 0.00 W/m2
06:04 38.0 °F /  3.3 °C 36.0 °F /  2.2 °C 30.0in /  1015.8hPa ENE 4mph /  6.4km/h 1mph /  1.6km/h 92% 0.000in /  0mm 0.00 W/m2
06:09 38.0 °F /  3.3 °C 36.0 °F /  2.2 °C 30.0in /  1015.8hPa Calm   3mph /  4.8km/h 92% 0.000in /  0mm 0.00 W/m2
06:14 38.0 °F /  3.3 °C 36.0 °F /  2.2 °C 30.0in /  1015.8hPa Calm     92% 0.000in /  0mm 0.00 W/m2
06:19 38.0 °F /  3.3 °C 36.0 °F /  2.2 °C 30.0in /  1015.8hPa Calm     92% 0.000in /  0mm 0.00 W/m2
06:24 39.0 °F /  3.9 °C 37.0 °F /  2.8 °C 30.0in /  1015.8hPa Calm     92% 0.000in /  0mm 0.00 W/m2
06:29 39.0 °F /  3.9 °C 37.0 °F /  2.8 °C 30.0in /  1015.8hPa Calm     92% 0.000in /  0mm 5.00 W/m2
06:34 39.0 °F /  3.9 °C 37.0 °F /  2.8 °C 30.0in /  1015.8hPa Calm     92% 0.000in /  0mm 7.00 W/m2
06:39 39.0 °F /  3.9 °C 37.0 °F /  2.8 °C 30.0in /  1015.8hPa Calm     92% 0.000in /  0mm 11.00 W/m2
06:44 39.0 °F /  3.9 °C 37.0 °F /  2.8 °C 30.0in /  1015.8hPa Calm     92% 0.000in /  0mm 12.00 W/m2
06:49 40.0 °F /  4.4 °C 37.0 °F /  2.8 °C 30.0in /  1015.8hPa ENE 4mph /  6.4km/h 1mph /  1.6km/h 92% 0.000in /  0mm 14.00 W/m2
06:54 40.0 °F /  4.4 °C 37.0 °F /  2.8 °C 30.0in /  1015.8hPa ENE 2mph /  3.2km/h 3mph /  4.8km/h 92% 0.000in /  0mm 19.00 W/m2
06:59 40.0 °F /  4.4 °C 38.0 °F /  3.3 °C 30.0in /  1015.8hPa Calm   2mph /  3.2km/h 92% 0.000in /  0mm 23.00 W/m2
07:04 40.0 °F /  4.4 °C 38.0 °F /  3.3 °C 30.0in /  1015.8hPa Calm     92% 0.000in /  0mm 23.00 W/m2
07:09 40.0 °F /  4.4 °C 38.0 °F /  3.3 °C 30.0in /  1015.8hPa ENE 2mph /  3.2km/h   92% 0.000in /  0mm 28.00 W/m2
07:14 40.0 °F /  4.4 °C 38.0 °F /  3.3 °C 30.0in /  1015.8hPa NNW 7mph /  11.3km/h 6mph /  9.7km/h 92% 0.000in /  0mm 33.00 W/m2
07:19 40.0 °F /  4.4 °C 38.0 °F /  3.3 °C 30.0in /  1015.8hPa North 7mph /  11.3km/h 7mph /  11.3km/h 92% 0.000in /  0mm 40.00 W/m2
07:24 40.0 °F /  4.4 °C 38.0 °F /  3.3 °C 30.0in /  1015.8hPa NNW 2mph /  3.2km/h 7mph /  11.3km/h 92% 0.000in /  0mm 72.00 W/m2
07:29 40.0 °F /  4.4 °C 38.0 °F /  3.3 °C 30.0in /  1015.8hPa NNW 4mph /  6.4km/h 2mph /  3.2km/h 92% 0.000in /  0mm 97.00 W/m2
07:34 40.0 °F /  4.4 °C 38.0 °F /  3.3 °C 30.0in /  1015.8hPa Calm   3mph /  4.8km/h 92% 0.000in /  0mm 97.00 W/m2
07:39 40.0 °F /  4.4 °C 38.0 °F /  3.3 °C 30.0in /  1015.8hPa Calm     92% 0.000in /  0mm 69.00 W/m2
07:44 40.0 °F /  4.4 °C 38.0 °F /  3.3 °C 30.0in /  1015.8hPa Calm     92% 0.000in /  0mm 86.00 W/m2
07:49 40.0 °F /  4.4 °C 38.0 °F /  3.3 °C 30.0in /  1015.8hPa Calm     92% 0.000in /  0mm 102.00 W/m2
07:54 41.0 °F /  5 °C 38.0 °F /  3.3 °C 30.0in /  1015.8hPa Calm     92% 0.000in /  0mm 97.00 W/m2
07:59 41.0 °F /  5 °C 38.0 °F /  3.3 °C 30.0in /  1015.8hPa Calm     92% 0.000in /  0mm 120.00 W/m2
08:04 41.0 °F /  5 °C 39.0 °F /  3.9 °C 30.0in /  1015.8hPa Calm     92% 0.000in /  0mm 139.00 W/m2
08:09 41.0 °F /  5 °C 39.0 °F /  3.9 °C 30.0in /  1015.8hPa NE 2mph /  3.2km/h   92% 0.000in /  0mm 283.00 W/m2
08:14 41.0 °F /  5 °C 39.0 °F /  3.9 °C 30.0in /  1015.8hPa Calm   2mph /  3.2km/h 92% 0.000in /  0mm 378.00 W/m2
08:19 41.0 °F /  5 °C 39.0 °F /  3.9 °C 30.0in /  1015.8hPa Calm     93% 0.000in /  0mm 399.00 W/m2
08:24 41.0 °F /  5 °C 39.0 °F /  3.9 °C 30.0in /  1015.8hPa Calm     93% 0.000in /  0mm 410.00 W/m2
08:29 41.0 °F /  5 °C 39.0 °F /  3.9 °C 30.0in /  1015.8hPa Calm     93% 0.000in /  0mm 429.00 W/m2
08:34 42.0 °F /  5.6 °C 40.0 °F /  4.4 °C 30.0in /  1015.8hPa Calm     93% 0.000in /  0mm 455.00 W/m2
08:39 43.0 °F /  6.1 °C 41.0 °F /  5 °C 30.0in /  1015.8hPa Calm     93% 0.000in /  0mm 466.00 W/m2
08:44 43.0 °F /  6.1 °C 41.0 °F /  5 °C 30.0in /  1015.8hPa Calm     93% 0.000in /  0mm 494.00 W/m2
08:49 43.0 °F /  6.1 °C 42.0 °F /  5.6 °C 30.0in /  1015.8hPa Calm     93% 0.000in /  0mm 512.00 W/m2
08:54 44.0 °F /  6.7 °C 42.0 °F /  5.6 °C 30.0in /  1015.8hPa Calm     93% 0.000in /  0mm 536.00 W/m2
08:59 44.0 °F /  6.7 °C 42.0 °F /  5.6 °C 30.0in /  1015.8hPa Calm     93% 0.000in /  0mm 566.00 W/m2
09:04 44.0 °F /  6.7 °C 42.0 °F /  5.6 °C 30.0in /  1015.8hPa East 2mph /  3.2km/h   93% 0.000in /  0mm 589.00 W/m2
09:09 45.0 °F /  7.2 °C 43.0 °F /  6.1 °C 30.0in /  1015.8hPa Calm   2mph /  3.2km/h 93% 0.000in /  0mm 605.00 W/m2
09:14 45.0 °F /  7.2 °C 43.0 °F /  6.1 °C 30.0in /  1015.8hPa Calm     93% 0.000in /  0mm 624.00 W/m2
09:19 45.0 °F /  7.2 °C 43.0 °F /  6.1 °C 30.0in /  1015.8hPa Calm     93% 0.000in /  0mm 622.00 W/m2
09:24 45.0 °F /  7.2 °C 43.0 °F /  6.1 °C 30.0in /  1015.8hPa East 2mph /  3.2km/h   92% 0.000in /  0mm 636.00 W/m2
09:29 45.0 °F /  7.2 °C 43.0 °F /  6.1 °C 30.0in /  1015.8hPa ESE 2mph /  3.2km/h 2mph /  3.2km/h 92% 0.000in /  0mm 656.00 W/m2
09:34 46.0 °F /  7.8 °C 43.0 °F /  6.1 °C 30.0in /  1015.8hPa Calm   2mph /  3.2km/h 91% 0.000in /  0mm 670.00 W/m2
09:39 47.0 °F /  8.3 °C 43.0 °F /  6.1 °C 30.0in /  1015.8hPa East 2mph /  3.2km/h   90% 0.000in /  0mm 686.00 W/m2
09:44 47.0 °F /  8.3 °C 43.0 °F /  6.1 °C 30.0in /  1015.8hPa Calm   2mph /  3.2km/h 88% 0.000in /  0mm 701.00 W/m2
09:49 48.0 °F /  8.9 °C 43.0 °F /  6.1 °C 30.0in /  1015.8hPa East 4mph /  6.4km/h 1mph /  1.6km/h 86% 0.000in /  0mm 717.00 W/m2
09:54 48.0 °F /  8.9 °C 43.0 °F /  6.1 °C 30.0in /  1015.8hPa ESE 4mph /  6.4km/h 3mph /  4.8km/h 84% 0.000in /  0mm 729.00 W/m2
09:59 49.0 °F /  9.4 °C 43.0 °F /  6.1 °C 30.0in /  1015.8hPa SE 4mph /  6.4km/h 2mph /  3.2km/h 81% 0.000in /  0mm 728.00 W/m2
10:04 49.0 °F /  9.4 °C 42.0 °F /  5.6 °C 30.0in /  1015.8hPa SE 2mph /  3.2km/h 3mph /  4.8km/h 78% 0.000in /  0mm 773.00 W/m2
10:09 49.0 °F /  9.4 °C 41.0 °F /  5 °C 30.0in /  1015.8hPa North 2mph /  3.2km/h 2mph /  3.2km/h 74% 0.000in /  0mm 856.00 W/m2
10:14 50.0 °F /  10 °C 42.0 °F /  5.6 °C 30.0in /  1015.8hPa North 4mph /  6.4km/h 2mph /  3.2km/h 74% 0.000in /  0mm 904.00 W/m2
10:19 50.0 °F /  10 °C 42.0 °F /  5.6 °C 30.0in /  1015.8hPa North 2mph /  3.2km/h 3mph /  4.8km/h 73% 0.000in /  0mm 946.00 W/m2
10:24 51.0 °F /  10.6 °C 43.0 °F /  6.1 °C 30.0in /  1015.8hPa NE 2mph /  3.2km/h 2mph /  3.2km/h 74% 0.000in /  0mm 960.00 W/m2
10:29 51.0 °F /  10.6 °C 43.0 °F /  6.1 °C 30.0in /  1015.8hPa East 5mph /  8km/h 2mph /  3.2km/h 73% 0.000in /  0mm 970.00 W/m2
10:34 52.0 °F /  11.1 °C 42.0 °F /  5.6 °C 30.0in /  1015.8hPa East 6mph /  9.7km/h 6mph /  9.7km/h 69% 0.000in /  0mm 1005.00 W/m2
10:39 52.0 °F /  11.1 °C 42.0 °F /  5.6 °C 30.0in /  1015.8hPa ESE 4mph /  6.4km/h 2mph /  3.2km/h 68% 0.000in /  0mm 1005.00 W/m2
10:44 52.0 °F /  11.1 °C 40.0 °F /  4.4 °C 30.0in /  1015.8hPa SE 2mph /  3.2km/h 3mph /  4.8km/h 64% 0.000in /  0mm 1013.00 W/m2
10:49 52.0 °F /  11.1 °C 40.0 °F /  4.4 °C 30.0in /  1015.8hPa ENE 4mph /  6.4km/h 3mph /  4.8km/h 64% 0.000in /  0mm 997.00 W/m2
10:54 52.0 °F /  11.1 °C 38.0 °F /  3.3 °C 30.0in /  1015.8hPa SSE 2mph /  3.2km/h 1mph /  1.6km/h 58% 0.000in /  0mm 974.00 W/m2
10:59 53.0 °F /  11.7 °C 39.0 °F /  3.9 °C 30.0in /  1015.8hPa ENE 2mph /  3.2km/h 2mph /  3.2km/h 61% 0.000in /  0mm 974.00 W/m2
11:04 53.0 °F /  11.7 °C 40.0 °F /  4.4 °C 30.0in /  1015.8hPa ENE 2mph /  3.2km/h 2mph /  3.2km/h 61% 0.000in /  0mm 970.00 W/m2
11:09 53.0 °F /  11.7 °C 39.0 °F /  3.9 °C 30.0in /  1015.8hPa ENE 4mph /  6.4km/h 2mph /  3.2km/h 58% 0.000in /  0mm 954.00 W/m2
11:14 54.0 °F /  12.2 °C 40.0 °F /  4.4 °C 30.0in /  1015.8hPa ENE 2mph /  3.2km/h 3mph /  4.8km/h 60% 0.000in /  0mm 937.00 W/m2
11:19 54.0 °F /  12.2 °C 39.0 °F /  3.9 °C 30.0in /  1015.8hPa ESE 7mph /  11.3km/h 7mph /  11.3km/h 58% 0.000in /  0mm 988.00 W/m2
11:24 54.0 °F /  12.2 °C 39.0 °F /  3.9 °C 30.0in /  1015.8hPa SE 4mph /  6.4km/h 3mph /  4.8km/h 56% 0.000in /  0mm 1027.00 W/m2
11:29 54.0 °F /  12.2 °C 39.0 °F /  3.9 °C 30.0in /  1015.8hPa Calm   2mph /  3.2km/h 55% 0.000in /  0mm 1104.00 W/m2
11:34 55.0 °F /  12.8 °C 40.0 °F /  4.4 °C 30.0in /  1015.8hPa SW 2mph /  3.2km/h   57% 0.000in /  0mm 956.00 W/m2
11:39 55.0 °F /  12.8 °C 40.0 °F /  4.4 °C 30.0in /  1015.8hPa East 6mph /  9.7km/h 3mph /  4.8km/h 57% 0.000in /  0mm 984.00 W/m2
11:44 55.0 °F /  12.8 °C 40.0 °F /  4.4 °C 30.0in /  1015.8hPa ESE 6mph /  9.7km/h 6mph /  9.7km/h 57% 0.000in /  0mm 984.00 W/m2
11:49 55.0 °F /  12.8 °C 40.0 °F /  4.4 °C 30.0in /  1015.8hPa East 7mph /  11.3km/h 6mph /  9.7km/h 57% 0.000in /  0mm 1032.00 W/m2
11:54 55.0 °F /  12.8 °C 38.0 °F /  3.3 °C 30.0in /  1015.8hPa East 9mph /  14.5km/h 7mph /  11.3km/h 52% 0.000in /  0mm 1035.00 W/m2
11:59 56.0 °F /  13.3 °C 38.0 °F /  3.3 °C 30.0in /  1015.8hPa SE 6mph /  9.7km/h 9mph /  14.5km/h 52% 0.000in /  0mm 998.00 W/m2
12:04 56.0 °F /  13.3 °C 39.0 °F /  3.9 °C 30.0in /  1015.8hPa East 9mph /  14.5km/h 4mph /  6.4km/h 54% 0.000in /  0mm 1016.00 W/m2
12:09 56.0 °F /  13.3 °C 40.0 °F /  4.4 °C 30.0in /  1015.8hPa East 6mph /  9.7km/h 9mph /  14.5km/h 56% 0.000in /  0mm 1032.00 W/m2
12:14 56.0 °F /  13.3 °C 40.0 °F /  4.4 °C 30.0in /  1015.8hPa SE 6mph /  9.7km/h 3mph /  4.8km/h 54% 0.000in /  0mm 1002.00 W/m2
12:19 56.0 °F /  13.3 °C 38.0 °F /  3.3 °C 30.0in /  1015.8hPa SE 4mph /  6.4km/h 6mph /  9.7km/h 50% 0.000in /  0mm 981.00 W/m2
12:24 56.0 °F /  13.3 °C 37.0 °F /  2.8 °C 30.0in /  1015.8hPa ESE 6mph /  9.7km/h 3mph /  4.8km/h 48% 0.000in /  0mm 990.00 W/m2
12:29 57.0 °F /  13.9 °C 36.0 °F /  2.2 °C 30.0in /  1015.8hPa ESE 11mph /  17.7km/h 7mph /  11.3km/h 46% 0.000in /  0mm 1025.00 W/m2
12:34 57.0 °F /  13.9 °C 37.0 °F /  2.8 °C 30.0in /  1015.8hPa NE 9mph /  14.5km/h 10mph /  16.1km/h 47% 0.000in /  0mm 1041.00 W/m2
12:39 57.0 °F /  13.9 °C 37.0 °F /  2.8 °C 30.0in /  1015.8hPa ESE 11mph /  17.7km/h 6mph /  9.7km/h 47% 0.000in /  0mm 1018.00 W/m2
12:44 58.0 °F /  14.4 °C 38.0 °F /  3.3 °C 30.0in /  1015.8hPa SE 6mph /  9.7km/h 10mph /  16.1km/h 48% 0.000in /  0mm 1011.00 W/m2
12:49 58.0 °F /  14.4 °C 38.0 °F /  3.3 °C 30.0in /  1015.8hPa ESE 7mph /  11.3km/h 6mph /  9.7km/h 48% 0.000in /  0mm 1011.00 W/m2
12:54 58.0 °F /  14.4 °C 36.0 °F /  2.2 °C 30.0in /  1015.8hPa East 4mph /  6.4km/h 7mph /  11.3km/h 43% 0.000in /  0mm 1023.00 W/m2
12:59 59.0 °F /  15 °C 36.0 °F /  2.2 °C 30.0in /  1015.8hPa NNE 6mph /  9.7km/h 3mph /  4.8km/h 42% 0.000in /  0mm 1049.00 W/m2
13:04 59.0 °F /  15 °C 36.0 °F /  2.2 °C 30.0in /  1015.8hPa East 7mph /  11.3km/h 7mph /  11.3km/h 42% 0.000in /  0mm 1046.00 W/m2
13:09 59.0 °F /  15 °C 36.0 °F /  2.2 °C 30.0in /  1015.8hPa NE 6mph /  9.7km/h 7mph /  11.3km/h 43% 0.000in /  0mm 1016.00 W/m2
13:14 59.0 °F /  15 °C 37.0 °F /  2.8 °C 30.0in /  1015.8hPa SE 11mph /  17.7km/h 6mph /  9.7km/h 44% 0.000in /  0mm 1037.00 W/m2
13:19 59.0 °F /  15 °C 37.0 °F /  2.8 °C 30.0in /  1015.8hPa East 7mph /  11.3km/h 10mph /  16.1km/h 44% 0.000in /  0mm 1030.00 W/m2
13:24 59.0 °F /  15 °C 37.0 °F /  2.8 °C 30.0in /  1015.8hPa ESE 6mph /  9.7km/h 7mph /  11.3km/h 44% 0.000in /  0mm 1021.00 W/m2
13:29 60.0 °F /  15.6 °C 36.0 °F /  2.2 °C 30.0in /  1015.8hPa East 9mph /  14.5km/h 6mph /  9.7km/h 42% 0.000in /  0mm 1021.00 W/m2
13:34 60.0 °F /  15.6 °C 37.0 °F /  2.8 °C 30.0in /  1015.8hPa ESE 7mph /  11.3km/h 9mph /  14.5km/h 42% 0.000in /  0mm 1034.00 W/m2
13:39 60.0 °F /  15.6 °C 36.0 °F /  2.2 °C 30.0in /  1015.8hPa North 7mph /  11.3km/h 7mph /  11.3km/h 41% 0.000in /  0mm 1013.00 W/m2
13:44 60.0 °F /  15.6 °C 36.0 °F /  2.2 °C 30.0in /  1015.8hPa WSW 7mph /  11.3km/h 7mph /  11.3km/h 41% 0.000in /  0mm 976.00 W/m2
13:49 60.0 °F /  15.6 °C 36.0 °F /  2.2 °C 30.0in /  1015.8hPa SE 4mph /  6.4km/h 6mph /  9.7km/h 40% 0.000in /  0mm 974.00 W/m2
13:53 60.0 °F /  15.6 °C 36.0 °F /  2.2 °C 30.0in /  1015.8hPa North 7mph /  11.3km/h 3mph /  4.8km/h 40% 0.000in /  0mm 983.00 W/m2
13:59 61.0 °F /  16.1 °C 36.0 °F /  2.2 °C 30.0in /  1015.8hPa ESE 11mph /  17.7km/h 8mph /  12.9km/h 39% 0.000in /  0mm 991.00 W/m2
14:04 61.0 °F /  16.1 °C 36.0 °F /  2.2 °C 30.0in /  1015.8hPa ESE 16mph /  25.7km/h 10mph /  16.1km/h 39% 0.000in /  0mm 988.00 W/m2
14:09 61.0 °F /  16.1 °C 35.0 °F /  1.7 °C 30.0in /  1015.8hPa ESE 7mph /  11.3km/h 16mph /  25.7km/h 38% 0.000in /  0mm 956.00 W/m2
14:14 61.0 °F /  16.1 °C 37.0 °F /  2.8 °C 30.0in /  1015.8hPa SSE 7mph /  11.3km/h 7mph /  11.3km/h 41% 0.000in /  0mm 995.00 W/m2
14:19 61.0 °F /  16.1 °C 37.0 °F /  2.8 °C 30.0in /  1015.8hPa ESE 7mph /  11.3km/h 3mph /  4.8km/h 41% 0.000in /  0mm 976.00 W/m2
14:24 61.0 °F /  16.1 °C 36.0 °F /  2.2 °C 30.0in /  1015.8hPa East 9mph /  14.5km/h 7mph /  11.3km/h 38% 0.000in /  0mm 993.00 W/m2
14:29 61.0 °F /  16.1 °C 36.0 °F /  2.2 °C 30.0in /  1015.8hPa East 7mph /  11.3km/h 9mph /  14.5km/h 39% 0.000in /  0mm 993.00 W/m2
14:34 61.0 °F /  16.1 °C 35.0 °F /  1.7 °C 30.0in /  1015.8hPa ESE 4mph /  6.4km/h 7mph /  11.3km/h 37% 0.000in /  0mm 1048.00 W/m2
14:39 61.0 °F /  16.1 °C 36.0 °F /  2.2 °C 30.0in /  1015.8hPa East 11mph /  17.7km/h 8mph /  12.9km/h 39% 0.000in /  0mm 1030.00 W/m2
14:44 62.0 °F /  16.7 °C 37.0 °F /  2.8 °C 30.0in /  1015.8hPa ESE 9mph /  14.5km/h 10mph /  16.1km/h 40% 0.000in /  0mm 986.00 W/m2
14:49 62.0 °F /  16.7 °C 37.0 °F /  2.8 °C 30.0in /  1015.8hPa SE 7mph /  11.3km/h 9mph /  14.5km/h 39% 0.000in /  0mm 939.00 W/m2
14:54 63.0 °F /  17.2 °C 38.0 °F /  3.3 °C 30.0in /  1015.8hPa East 2mph /  3.2km/h 2mph /  3.2km/h 41% 0.000in /  0mm 898.00 W/m2
14:59 63.0 °F /  17.2 °C 37.0 °F /  2.8 °C 30.0in /  1015.8hPa East 16mph /  25.7km/h 11mph /  17.7km/h 38% 0.000in /  0mm 889.00 W/m2
15:04 63.0 °F /  17.2 °C 36.0 °F /  2.2 °C 30.0in /  1015.8hPa East 16mph /  25.7km/h 16mph /  25.7km/h 36% 0.000in /  0mm 879.00 W/m2
15:09 63.0 °F /  17.2 °C 36.0 °F /  2.2 °C 30.0in /  1015.8hPa ESE 9mph /  14.5km/h 9mph /  14.5km/h 37% 0.000in /  0mm 865.00 W/m2
15:14 63.0 °F /  17.2 °C 37.0 °F /  2.8 °C 30.0in /  1015.8hPa ESE 16mph /  25.7km/h 12mph /  19.3km/h 38% 0.000in /  0mm 846.00 W/m2
15:19 63.0 °F /  17.2 °C 35.0 °F /  1.7 °C 30.0in /  1015.8hPa East 14mph /  22.5km/h 16mph /  25.7km/h 35% 0.000in /  0mm 833.00 W/m2
15:24 63.0 °F /  17.2 °C 35.0 °F /  1.7 °C 30.0in /  1015.8hPa ENE 7mph /  11.3km/h 14mph /  22.5km/h 35% 0.000in /  0mm 823.00 W/m2
15:29 63.0 °F /  17.2 °C 35.0 °F /  1.7 °C 30.0in /  1015.8hPa SSE 9mph /  14.5km/h 9mph /  14.5km/h 35% 0.000in /  0mm 796.00 W/m2
15:33 63.0 °F /  17.2 °C 37.0 °F /  2.8 °C 30.0in /  1015.8hPa NW 7mph /  11.3km/h 9mph /  14.5km/h 37% 0.000in /  0mm 796.00 W/m2
15:39 64.0 °F /  17.8 °C 35.0 °F /  1.7 °C 30.0in /  1015.8hPa SE 9mph /  14.5km/h 9mph /  14.5km/h 34% 0.000in /  0mm 788.00 W/m2
15:44 63.0 °F /  17.2 °C 35.0 °F /  1.7 °C 30.0in /  1015.8hPa ESE 7mph /  11.3km/h 9mph /  14.5km/h 35% 0.000in /  0mm 742.00 W/m2
15:49 63.0 °F /  17.2 °C 35.0 °F /  1.7 °C 30.0in /  1015.8hPa SE 6mph /  9.7km/h 7mph /  11.3km/h 36% 0.000in /  0mm 742.00 W/m2
15:54 63.0 °F /  17.2 °C 38.0 °F /  3.3 °C 30.0in /  1015.8hPa NNW 6mph /  9.7km/h 6mph /  9.7km/h 40% 0.000in /  0mm 715.00 W/m2
15:59 64.0 °F /  17.8 °C 38.0 °F /  3.3 °C 30.0in /  1015.8hPa SSE 9mph /  14.5km/h 9mph /  14.5km/h 39% 0.000in /  0mm 735.00 W/m2
16:04 64.0 °F /  17.8 °C 36.0 °F /  2.2 °C 30.0in /  1015.8hPa SE 11mph /  17.7km/h 9mph /  14.5km/h 35% 0.000in /  0mm 740.00 W/m2
16:09 64.0 °F /  17.8 °C 36.0 °F /  2.2 °C 30.0in /  1015.8hPa East 6mph /  9.7km/h 10mph /  16.1km/h 36% 0.000in /  0mm 708.00 W/m2
16:14 64.0 °F /  17.8 °C 37.0 °F /  2.8 °C 30.0in /  1015.8hPa SSE 4mph /  6.4km/h 3mph /  4.8km/h 36% 0.000in /  0mm 659.00 W/m2
16:19 64.0 °F /  17.8 °C 35.0 °F /  1.7 °C 30.0in /  1015.8hPa SE 11mph /  17.7km/h 8mph /  12.9km/h 34% 0.000in /  0mm 666.00 W/m2
16:24 64.0 °F /  17.8 °C 35.0 °F /  1.7 °C 30.0in /  1015.8hPa ESE 12mph /  19.3km/h 10mph /  16.1km/h 34% 0.000in /  0mm 606.00 W/m2
16:29 64.0 °F /  17.8 °C 35.0 °F /  1.7 °C 30.0in /  1015.8hPa SE 13mph /  20.9km/h 13mph /  20.9km/h 33% 0.000in /  0mm 436.00 W/m2
16:34 64.0 °F /  17.8 °C 35.0 °F /  1.7 °C 30.0in /  1015.8hPa ESE 12mph /  19.3km/h 9mph /  14.5km/h 34% 0.000in /  0mm 476.00 W/m2
16:39 64.0 °F /  17.8 °C 35.0 °F /  1.7 °C 30.0in /  1015.8hPa ESE 13mph /  20.9km/h 13mph /  20.9km/h 34% 0.000in /  0mm 617.00 W/m2
16:44 63.0 °F /  17.2 °C 35.0 °F /  1.7 °C 30.0in /  1015.8hPa North 13mph /  20.9km/h 10mph /  16.1km/h 35% 0.000in /  0mm 617.00 W/m2
16:48 63.0 °F /  17.2 °C 33.0 °F /  0.6 °C 30.0in /  1015.8hPa NE 13mph /  20.9km/h 13mph /  20.9km/h 33% 0.000in /  0mm 591.00 W/m2
16:54 63.0 °F /  17.2 °C 35.0 °F /  1.7 °C 30.0in /  1015.8hPa ENE 17mph /  27.4km/h 17mph /  27.4km/h 35% 0.000in /  0mm 526.00 W/m2
16:59 63.0 °F /  17.2 °C 34.0 °F /  1.1 °C 30.0in /  1015.8hPa East 11mph /  17.7km/h 9mph /  14.5km/h 34% 0.000in /  0mm 506.00 W/m2
17:04 63.0 °F /  17.2 °C 36.0 °F /  2.2 °C 30.0in /  1015.8hPa ENE 16mph /  25.7km/h 10mph /  16.1km/h 36% 0.000in /  0mm 485.00 W/m2
17:09 63.0 °F /  17.2 °C 35.0 °F /  1.7 °C 30.0in /  1015.8hPa SSE 7mph /  11.3km/h 16mph /  25.7km/h 36% 0.000in /  0mm 434.00 W/m2
17:14 63.0 °F /  17.2 °C 34.0 °F /  1.1 °C 30.0in /  1015.8hPa SE 4mph /  6.4km/h 7mph /  11.3km/h 34% 0.000in /  0mm 306.00 W/m2
17:19 62.0 °F /  16.7 °C 34.0 °F /  1.1 °C 30.0in /  1015.8hPa SE 12mph /  19.3km/h 5mph /  8km/h 35% 0.000in /  0mm 306.00 W/m2
17:23 62.0 °F /  16.7 °C 33.0 °F /  0.6 °C 30.0in /  1015.8hPa East 13mph /  20.9km/h 13mph /  20.9km/h 33% 0.000in /  0mm 146.00 W/m2
17:29 62.0 °F /  16.7 °C 33.0 °F /  0.6 °C 30.0in /  1015.8hPa East 7mph /  11.3km/h 7mph /  11.3km/h 34% 0.000in /  0mm 81.00 W/m2
17:34 61.0 °F /  16.1 °C 33.0 °F /  0.6 °C 30.0in /  1015.8hPa ENE 9mph /  14.5km/h 7mph /  11.3km/h 35% 0.000in /  0mm 76.00 W/m2
17:39 61.0 °F /  16.1 °C 33.0 °F /  0.6 °C 30.0in /  1015.8hPa East 7mph /  11.3km/h 9mph /  14.5km/h 36% 0.000in /  0mm 77.00 W/m2
17:44 60.0 °F /  15.6 °C 33.0 °F /  0.6 °C 30.0in /  1015.8hPa East 9mph /  14.5km/h 7mph /  11.3km/h 35% 0.000in /  0mm 72.00 W/m2
17:49 60.0 °F /  15.6 °C 33.0 °F /  0.6 °C 30.0in /  1015.8hPa ESE 3mph /  4.8km/h 9mph /  14.5km/h 37% 0.000in /  0mm 65.00 W/m2
17:54 59.0 °F /  15 °C 34.0 °F /  1.1 °C 30.0in /  1015.8hPa ESE 4mph /  6.4km/h 2mph /  3.2km/h 39% 0.000in /  0mm 62.00 W/m2
17:59 59.0 °F /  15 °C 34.0 °F /  1.1 °C 30.0in /  1015.8hPa NNE 2mph /  3.2km/h 3mph /  4.8km/h 39% 0.000in /  0mm 60.00 W/m2
18:04 59.0 °F /  15 °C 34.0 °F /  1.1 °C 30.0in /  1015.8hPa NNE 2mph /  3.2km/h 2mph /  3.2km/h 39% 0.000in /  0mm 63.00 W/m2
18:09 59.0 °F /  15 °C 34.0 °F /  1.1 °C 30.0in /  1015.8hPa South 4mph /  6.4km/h 2mph /  3.2km/h 40% 0.000in /  0mm 62.00 W/m2
18:14 58.0 °F /  14.4 °C 33.0 °F /  0.6 °C 30.0in /  1015.8hPa East 4mph /  6.4km/h 3mph /  4.8km/h 39% 0.000in /  0mm 60.00 W/m2
18:19 58.0 °F /  14.4 °C 34.0 °F /  1.1 °C 30.0in /  1015.8hPa ENE 2mph /  3.2km/h 3mph /  4.8km/h 40% 0.000in /  0mm 53.00 W/m2
18:24 58.0 °F /  14.4 °C 34.0 °F /  1.1 °C 30.0in /  1015.8hPa East 6mph /  9.7km/h 2mph /  3.2km/h 41% 0.000in /  0mm 44.00 W/m2
18:29 58.0 °F /  14.4 °C 34.0 °F /  1.1 °C 30.0in /  1015.8hPa ESE 7mph /  11.3km/h 7mph /  11.3km/h 41% 0.000in /  0mm 37.00 W/m2
18:34 58.0 °F /  14.4 °C 33.0 °F /  0.6 °C 30.0in /  1015.8hPa ESE 4mph /  6.4km/h 6mph /  9.7km/h 40% 0.000in /  0mm 32.00 W/m2
18:39 57.0 °F /  13.9 °C 34.0 °F /  1.1 °C 30.0in /  1015.8hPa NW 2mph /  3.2km/h 3mph /  4.8km/h 42% 0.000in /  0mm 35.00 W/m2
18:44 57.0 °F /  13.9 °C 35.0 °F /  1.7 °C 30.0in /  1015.8hPa Calm   2mph /  3.2km/h 43% 0.000in /  0mm 40.00 W/m2
18:49 57.0 °F /  13.9 °C 34.0 °F /  1.1 °C 30.0in /  1015.8hPa NNE 4mph /  6.4km/h 3mph /  4.8km/h 41% 0.000in /  0mm 49.00 W/m2
18:54 57.0 °F /  13.9 °C 36.0 °F /  2.2 °C 30.0in /  1015.8hPa Calm   2mph /  3.2km/h 45% 0.000in /  0mm 28.00 W/m2
18:59 57.0 °F /  13.9 °C 36.0 °F /  2.2 °C 30.0in /  1015.8hPa Calm     45% 0.000in /  0mm 28.00 W/m2
19:04 57.0 °F /  13.9 °C 35.0 °F /  1.7 °C 30.0in /  1015.8hPa NNE 2mph /  3.2km/h   44% 0.000in /  0mm 26.00 W/m2
19:09 56.0 °F /  13.3 °C 35.0 °F /  1.7 °C 30.0in /  1015.8hPa NE 4mph /  6.4km/h 3mph /  4.8km/h 45% 0.000in /  0mm 26.00 W/m2
19:14 56.0 °F /  13.3 °C 35.0 °F /  1.7 °C 30.0in /  1015.8hPa Calm     45% 0.000in /  0mm 26.00 W/m2
19:19 56.0 °F /  13.3 °C 35.0 °F /  1.7 °C 30.0in /  1015.8hPa Calm     46% 0.000in /  0mm 26.00 W/m2
19:24 56.0 °F /  13.3 °C 35.0 °F /  1.7 °C 30.0in /  1015.8hPa NE 2mph /  3.2km/h   45% 0.000in /  0mm 21.00 W/m2
19:29 55.0 °F /  12.8 °C 34.0 °F /  1.1 °C 30.0in /  1015.8hPa Calm   2mph /  3.2km/h 45% 0.000in /  0mm 16.00 W/m2
19:34 55.0 °F /  12.8 °C 34.0 °F /  1.1 °C 30.0in /  1015.8hPa Calm     45% 0.000in /  0mm 12.00 W/m2
19:39 55.0 °F /  12.8 °C 36.0 °F /  2.2 °C 30.0in /  1015.8hPa Calm     48% 0.000in /  0mm 11.00 W/m2
19:44 55.0 °F /  12.8 °C 36.0 °F /  2.2 °C 30.0in /  1015.8hPa Calm     49% 0.000in /  0mm 7.00 W/m2
19:49 55.0 °F /  12.8 °C 36.0 °F /  2.2 °C 30.0in /  1015.8hPa Calm     50% 0.000in /  0mm 5.00 W/m2
19:54 54.0 °F /  12.2 °C 36.0 °F /  2.2 °C 30.0in /  1015.8hPa Calm     50% 0.000in /  0mm 0.00 W/m2
19:59 54.0 °F /  12.2 °C 36.0 °F /  2.2 °C 30.0in /  1015.8hPa Calm     51% 0.000in /  0mm 0.00 W/m2
20:04 54.0 °F /  12.2 °C 36.0 °F /  2.2 °C 30.0in /  1015.8hPa Calm     52% 0.000in /  0mm 0.00 W/m2
20:09 53.0 °F /  11.7 °C 37.0 °F /  2.8 °C 30.0in /  1015.8hPa Calm     54% 0.000in /  0mm 0.00 W/m2
20:14 53.0 °F /  11.7 °C 36.0 °F /  2.2 °C 30.0in /  1015.8hPa Calm     53% 0.000in /  0mm 0.00 W/m2
20:19 52.0 °F /  11.1 °C 36.0 °F /  2.2 °C 30.0in /  1015.8hPa Calm     53% 0.000in /  0mm 0.00 W/m2
20:24 52.0 °F /  11.1 °C 35.0 °F /  1.7 °C 30.0in /  1015.8hPa Calm     54% 0.000in /  0mm 0.00 W/m2
20:29 51.0 °F /  10.6 °C 35.0 °F /  1.7 °C 30.0in /  1015.8hPa Calm     55% 0.000in /  0mm 0.00 W/m2
20:34 51.0 °F /  10.6 °C 36.0 °F /  2.2 °C 30.0in /  1015.8hPa Calm     56% 0.000in /  0mm 0.00 W/m2
20:39 51.0 °F /  10.6 °C 35.0 °F /  1.7 °C 30.0in /  1015.8hPa Calm     56% 0.000in /  0mm 0.00 W/m2
20:44 50.0 °F /  10 °C 35.0 °F /  1.7 °C 30.0in /  1015.8hPa Calm     56% 0.000in /  0mm 0.00 W/m2
20:49 50.0 °F /  10 °C 35.0 °F /  1.7 °C 30.0in /  1015.8hPa Calm     58% 0.000in /  0mm 0.00 W/m2
20:54 50.0 °F /  10 °C 35.0 °F /  1.7 °C 30.0in /  1015.8hPa Calm     59% 0.000in /  0mm 0.00 W/m2
20:59 49.0 °F /  9.4 °C 36.0 °F /  2.2 °C 30.0in /  1015.8hPa Calm     60% 0.000in /  0mm 0.00 W/m2
21:04 49.0 °F /  9.4 °C 36.0 °F /  2.2 °C 30.0in /  1015.8hPa Calm     61% 0.000in /  0mm 0.00 W/m2
21:09 49.0 °F /  9.4 °C 36.0 °F /  2.2 °C 30.0in /  1015.8hPa Calm     62% 0.000in /  0mm 0.00 W/m2
21:14 48.0 °F /  8.9 °C 36.0 °F /  2.2 °C 30.0in /  1015.8hPa Calm     63% 0.000in /  0mm 0.00 W/m2
21:19 48.0 °F /  8.9 °C 36.0 °F /  2.2 °C 30.0in /  1015.8hPa Calm     63% 0.000in /  0mm 0.00 W/m2
21:24 48.0 °F /  8.9 °C 36.0 °F /  2.2 °C 30.0in /  1015.8hPa Calm     64% 0.000in /  0mm 0.00 W/m2
21:29 48.0 °F /  8.9 °C 36.0 °F /  2.2 °C 30.0in /  1015.8hPa Calm     64% 0.000in /  0mm 0.00 W/m2
21:34 47.0 °F /  8.3 °C 36.0 °F /  2.2 °C 30.0in /  1015.8hPa Calm     65% 0.000in /  0mm 0.00 W/m2
21:39 47.0 °F /  8.3 °C 36.0 °F /  2.2 °C 30.0in /  1015.8hPa Calm     66% 0.000in /  0mm 0.00 W/m2
21:44 47.0 °F /  8.3 °C 36.0 °F /  2.2 °C 30.0in /  1015.8hPa Calm     66% 0.000in /  0mm 0.00 W/m2
21:49 47.0 °F /  8.3 °C 37.0 °F /  2.8 °C 30.0in /  1015.8hPa North 4mph /  6.4km/h 1mph /  1.6km/h 67% 0.000in /  0mm 0.00 W/m2
21:54 47.0 °F /  8.3 °C 36.0 °F /  2.2 °C 30.0in /  1015.8hPa Calm   3mph /  4.8km/h 66% 0.000in /  0mm 0.00 W/m2
21:59 47.0 °F /  8.3 °C 36.0 °F /  2.2 °C 30.0in /  1015.8hPa Calm     67% 0.000in /  0mm 0.00 W/m2
22:04 47.0 °F /  8.3 °C 37.0 °F /  2.8 °C 30.0in /  1015.8hPa Calm     68% 0.000in /  0mm 0.00 W/m2
22:09 47.0 °F /  8.3 °C 36.0 °F /  2.2 °C 30.0in /  1015.8hPa NNW 2mph /  3.2km/h   67% 0.000in /  0mm 0.00 W/m2
22:14 47.0 °F /  8.3 °C 36.0 °F /  2.2 °C 30.0in /  1015.8hPa Calm   2mph /  3.2km/h 67% 0.000in /  0mm 0.00 W/m2
22:19 46.0 °F /  7.8 °C 36.0 °F /  2.2 °C 30.0in /  1015.8hPa Calm     67% 0.000in /  0mm 0.00 W/m2
22:24 46.0 °F /  7.8 °C 36.0 °F /  2.2 °C 30.0in /  1015.8hPa Calm     68% 0.000in /  0mm 0.00 W/m2
22:29 46.0 °F /  7.8 °C 36.0 °F /  2.2 °C 30.0in /  1015.8hPa Calm     68% 0.000in /  0mm 0.00 W/m2
22:34 46.0 °F /  7.8 °C 36.0 °F /  2.2 °C 30.0in /  1015.8hPa Calm     68% 0.000in /  0mm 0.00 W/m2
22:39 46.0 °F /  7.8 °C 36.0 °F /  2.2 °C 30.0in /  1015.8hPa Calm     69% 0.000in /  0mm 0.00 W/m2
22:44 46.0 °F /  7.8 °C 36.0 °F /  2.2 °C 30.0in /  1015.8hPa Calm     69% 0.000in /  0mm 0.00 W/m2
22:49 45.0 °F /  7.2 °C 36.0 °F /  2.2 °C 30.0in /  1015.8hPa Calm     69% 0.000in /  0mm 0.00 W/m2
22:54 45.0 °F /  7.2 °C 36.0 °F /  2.2 °C 30.0in /  1015.8hPa Calm     70% 0.000in /  0mm 0.00 W/m2
22:59 45.0 °F /  7.2 °C 35.0 °F /  1.7 °C 30.0in /  1015.8hPa Calm     70% 0.000in /  0mm 0.00 W/m2
23:04 44.0 °F /  6.7 °C 36.0 °F /  2.2 °C 30.0in /  1015.8hPa Calm     71% 0.000in /  0mm 0.00 W/m2
23:09 44.0 °F /  6.7 °C 35.0 °F /  1.7 °C 30.0in /  1015.8hPa Calm     71% 0.000in /  0mm 0.00 W/m2
23:14 44.0 °F /  6.7 °C 35.0 °F /  1.7 °C 30.0in /  1015.8hPa Calm     72% 0.000in /  0mm 0.00 W/m2
23:19 44.0 °F /  6.7 °C 35.0 °F /  1.7 °C 30.0in /  1015.8hPa Calm     72% 0.000in /  0mm 0.00 W/m2
23:24 44.0 °F /  6.7 °C 35.0 °F /  1.7 °C 30.0in /  1015.8hPa Calm     72% 0.000in /  0mm 0.00 W/m2
23:29 43.0 °F /  6.1 °C 35.0 °F /  1.7 °C 30.0in /  1015.8hPa Calm     73% 0.000in /  0mm 0.00 W/m2
23:34 43.0 °F /  6.1 °C 35.0 °F /  1.7 °C 30.0in /  1015.8hPa Calm     74% 0.000in /  0mm 0.00 W/m2
23:39 43.0 °F /  6.1 °C 35.0 °F /  1.7 °C 30.0in /  1015.8hPa Calm     74% 0.000in /  0mm 0.00 W/m2
23:44 43.0 °F /  6.1 °C 35.0 °F /  1.7 °C 30.0in /  1015.8hPa Calm     75% 0.000in /  0mm 0.00 W/m2
23:49 43.0 °F /  6.1 °C 35.0 °F /  1.7 °C 30.0in /  1015.8hPa Calm     75% 0.000in /  0mm 0.00 W/m2
23:54 43.0 °F /  6.1 °C 35.0 °F /  1.7 °C 30.0in /  1015.8hPa Calm     75% 0.000in /  0mm 0.00 W/m2
23:59 42.0 °F /  5.6 °C 35.0 °F /  1.7 °C 30.0in /  1015.8hPa Calm     75% 0.000in /  0mm 0.00 W/m2
El Dorado Weather
Compliments of Weather Underground - 4 mb